| time (UTC) | temp F | wind direction | speed MPH | gust MPH | rain 1hr in | rain 24hr in | rain mn in | humidity % | barometer mb |
| 20260906150027 | 66 | 342 | 2.0 | 10.0 | 0.00 | 0.00 | 0.00 | 81 | 1020.2 |
| 20260906144527 | 66 | 30 | 3.0 | 10.0 | 0.00 | 0.00 | 0.00 | 84 | 1020.2 |
| 20260906143014 | 66 | 20 | 1.0 | 4.0 | 0.00 | 0.00 | 0.00 | 85 | 1020.3 |
| 20260906141516 | 65 | 5 | 3.0 | 11.0 | 0.00 | 0.00 | 0.00 | 88 | 1020.3 |
| 20260906140036 | 65 | 350 | 2.0 | 6.0 | 0.00 | 0.00 | 0.00 | 91 | 1020.1 |
| 20260906134504 | 65 | 15 | 1.0 | 6.0 | 0.00 | 0.00 | 0.00 | 92 | 1019.8 |
| 20260906133049 | 65 | 25 | 2.0 | 8.0 | 0.00 | 0.00 | 0.00 | 95 | 1019.8 |
| 20260906131540 | 64 | 306 | 3.0 | 8.0 | 0.00 | 0.00 | 0.00 | 95 | 1019.8 |
| 20260906130006 | 64 | 10 | 0.0 | 4.0 | 0.00 | 0.00 | 0.00 | 96 | 1019.7 |
| 20260906124506 | 63 | 355 | 1.0 | 5.0 | 0.00 | 0.00 | 0.00 | 97 | 1019.7 |
| 20260906123031 | 63 | 42 | 1.0 | 4.0 | 0.00 | 0.00 | 0.00 | 96 | 1019.4 |
| 20260906121543 | 62 | 12 | 0.0 | 2.0 | 0.00 | 0.00 | 0.00 | 97 | 1019.5 |
| 20260906120022 | 61 | 17 | 0.0 | 2.0 | 0.00 | 0.00 | 0.00 | 97 | 1019.4 |
| 20260906114520 | 60 | 17 | 0.0 | 0.0 | 0.00 | 0.00 | 0.00 | 97 | 1019.1 |
| 20260906113016 | 59 | 17 | 0.0 | 0.0 | 0.00 | 0.00 | 0.00 | 96 | 1018.9 |
| 20260906111516 | 58 | 17 | 0.0 | 0.0 | 0.00 | 0.00 | 0.00 | 96 | 1018.9 |
| 20260906110014 | 58 | 17 | 0.0 | 0.0 | 0.00 | 0.00 | 0.00 | 95 | 1018.7 |
| 20260906104520 | 58 | 17 | 0.0 | 0.0 | 0.00 | 0.00 | 0.00 | 95 | 1018.6 |
| 20260906103056 | 58 | 17 | 0.0 | 0.0 | 0.00 | 0.00 | 0.00 | 95 | 1018.4 |
| 20260906101544 | 58 | 17 | 0.0 | 0.0 | 0.00 | 0.00 | 0.00 | 95 | 1018.3 |
| 20260906100045 | 58 | 17 | 0.0 | 0.0 | 0.00 | 0.00 | 0.00 | 94 | 1018.1 |
| 20260906094547 | 58 | 17 | 0.0 | 0.0 | 0.00 | 0.00 | 0.00 | 94 | 1017.9 |
| 20260906093100 | 59 | 17 | 0.0 | 0.0 | 0.00 | 0.00 | 0.00 | 94 | 1017.8 |
| 20260906091542 | 59 | 17 | 0.0 | 0.0 | 0.00 | 0.00 | 0.00 | 94 | 1017.8 |
| 20260906090030 | 59 | 17 | 0.0 | 0.0 | 0.00 | 0.00 | 0.00 | 94 | 1017.7 |
| 20260906084530 | 59 | 17 | 0.0 | 0.0 | 0.00 | 0.00 | 0.00 | 94 | 1017.4 |
| 20260906083054 | 59 | 17 | 0.0 | 0.0 | 0.00 | 0.00 | 0.00 | 94 | 1017.2 |
| 20260906081550 | 59 | 17 | 0.0 | 0.0 | 0.00 | 0.00 | 0.00 | 93 | 1017.1 |
| 20260906080100 | 60 | 17 | 0.0 | 0.0 | 0.00 | 0.00 | 0.00 | 93 | 1017.0 |
| 20260906074520 | 60 | 17 | 0.0 | 0.0 | 0.00 | 0.00 | 0.00 | 93 | 1017.2 |
| 20260906073031 | 60 | 17 | 0.0 | 0.0 | 0.00 | 0.00 | 0.00 | 93 | 1017.0 |
| 20260906071506 | 61 | 17 | 0.0 | 0.0 | 0.00 | 0.00 | 0.00 | 93 | 1016.9 |
| 20260906070003 | 61 | 17 | 0.0 | 0.0 | 0.00 | 0.00 | 0.00 | 93 | 1016.9 |
| 20260906064529 | 61 | 17 | 0.0 | 0.0 | 0.00 | 0.00 | 0.00 | 93 | 1017.0 |
| 20260906063025 | 62 | 17 | 0.0 | 0.0 | 0.00 | 0.00 | 0.00 | 93 | 1017.0 |
| 20260906061513 | 62 | 17 | 0.0 | 0.0 | 0.00 | 0.00 | 0.00 | 93 | 1016.9 |
| 20260906060001 | 62 | 17 | 0.0 | 0.0 | 0.00 | 0.00 | 0.00 | 93 | 1016.9 |
| 20260906054515 | 62 | 17 | 0.0 | 0.0 | 0.00 | 0.00 | 0.00 | 93 | 1017.0 |
| 20260906053011 | 62 | 17 | 0.0 | 0.0 | 0.00 | 0.00 | 0.00 | 93 | 1017.0 |
| 20260906051529 | 62 | 17 | 0.0 | 0.0 | 0.00 | 0.00 | 0.00 | 93 | 1016.8 |
| 20260906050021 | 62 | 17 | 0.0 | 0.0 | 0.00 | 0.00 | 0.00 | 93 | 1017.0 |
| 20260906044517 | 62 | 17 | 0.0 | 0.0 | 0.00 | 0.00 | 0.00 | 92 | 1016.9 |
| 20260906043041 | 61 | 17 | 0.0 | 0.0 | 0.00 | 0.00 | 0.00 | 92 | 1016.9 |
| 20260906041555 | 62 | 17 | 0.0 | 0.0 | 0.00 | 0.00 | 0.00 | 92 | 1016.8 |
| 20260906040111 | 62 | 17 | 0.0 | 0.0 | 0.00 | 0.00 | 0.00 | 91 | 1016.6 |
| 20260906034544 | 62 | 17 | 0.0 | 0.0 | 0.00 | 0.00 | 0.00 | 91 | 1016.7 |
| 20260906033010 | 62 | 17 | 0.0 | 0.0 | 0.00 | 0.00 | 0.00 | 91 | 1016.6 |
| 20260906031504 | 62 | 17 | 0.0 | 0.0 | 0.00 | 0.00 | 0.00 | 90 | 1016.6 |
| 20260906030009 | 62 | 17 | 0.0 | 0.0 | 0.00 | 0.00 | 0.00 | 90 | 1016.5 |
| 20260906024507 | 63 | 17 | 0.0 | 0.0 | 0.00 | 0.00 | 0.00 | 89 | 1016.4 |
| 20260906023007 | 63 | 17 | 0.0 | 0.0 | 0.00 | 0.00 | 0.00 | 88 | 1016.3 |
| 20260906021510 | 64 | 17 | 0.0 | 0.0 | 0.00 | 0.00 | 0.00 | 88 | 1016.2 |
| 20260906020011 | 64 | 17 | 0.0 | 0.0 | 0.00 | 0.00 | 0.00 | 87 | 1016.2 |
| 20260906014623 | 65 | 17 | 0.0 | 0.0 | 0.00 | 0.00 | 0.00 | 86 | 1016.2 |
| 20260906013031 | 65 | 17 | 0.0 | 0.0 | 0.00 | 0.00 | 0.00 | 86 | 1016.1 |
| 20260906011524 | 66 | 17 | 0.0 | 0.0 | 0.00 | 0.00 | 0.00 | 85 | 1016.0 |
| 20260906010032 | 66 | 17 | 0.0 | 0.0 | 0.00 | 0.00 | 0.00 | 83 | 1016.0 |
| 20260906004532 | 67 | 17 | 0.0 | 0.0 | 0.00 | 0.00 | 0.00 | 82 | 1016.0 |
| 20260906003036 | 68 | 17 | 0.0 | 1.0 | 0.00 | 0.00 | 0.00 | 81 | 1015.7 |
| 20260906001534 | 68 | 17 | 0.0 | 2.0 | 0.00 | 0.00 | 0.00 | 81 | 1015.6 |
| 20260906000042 | 69 | 17 | 0.0 | 1.0 | 0.00 | 0.00 | 0.00 | 79 | 1015.9 |
| 20260905234548 | 69 | 17 | 0.0 | 3.0 | 0.00 | 0.00 | 0.00 | 77 | 1015.8 |
| 20260905233044 | 70 | 5 | 0.0 | 3.0 | 0.00 | 0.00 | 0.00 | 76 | 1015.8 |
| 20260905231532 | 70 | 40 | 1.0 | 5.0 | 0.00 | 0.00 | 0.00 | 75 | 1015.9 |
| 20260905230028 | 70 | 14 | 2.0 | 8.0 | 0.00 | 0.00 | 0.00 | 74 | 1016.0 |
| 20260905224600 | 71 | 49 | 2.0 | 5.0 | 0.00 | 0.00 | 0.00 | 73 | 1015.8 |
| 20260905223046 | 71 | 24 | 2.0 | 5.0 | 0.00 | 0.00 | 0.00 | 72 | 1015.8 |
| 20260905221549 | 71 | 355 | 1.0 | 5.0 | 0.00 | 0.00 | 0.00 | 71 | 1015.6 |
| 20260905220053 | 72 | 5 | 1.0 | 4.0 | 0.00 | 0.00 | 0.00 | 71 | 1015.6 |
| 20260905214538 | 72 | 277 | 1.0 | 5.0 | 0.00 | 0.00 | 0.00 | 68 | 1015.5 |
| 20260905213055 | 73 | 17 | 1.0 | 6.0 | 0.00 | 0.00 | 0.00 | 67 | 1015.3 |
| 20260905211551 | 73 | 355 | 0.0 | 6.0 | 0.00 | 0.00 | 0.00 | 66 | 1015.2 |
| 20260905210001 | 74 | 26 | 2.0 | 5.0 | 0.00 | 0.00 | 0.00 | 64 | 1014.9 |
| 20260905204559 | 73 | 5 | 1.0 | 6.0 | 0.00 | 0.00 | 0.00 | 64 | 1015.2 |
| 20260905204502 | 73 | 5 | 0.0 | 6.0 | 0.00 | 0.00 | 0.00 | 64 | 1015.1 |
| 20260905203051 | 73 | 44 | 2.0 | 5.0 | 0.00 | 0.00 | 0.00 | 64 | 1015.2 |
| 20260905201507 | 73 | 329 | 2.0 | 6.0 | 0.00 | 0.00 | 0.00 | 64 | 1015.2 |
| 20260905200045 | 73 | 5 | 1.0 | 5.0 | 0.00 | 0.00 | 0.00 | 66 | 1015.3 |
| 20260905194555 | 73 | 348 | 1.0 | 5.0 | 0.00 | 0.00 | 0.00 | 66 | 1015.3 |
| 20260905193055 | 73 | 12 | 2.0 | 8.0 | 0.00 | 0.00 | 0.00 | 66 | 1015.4 |
| 20260905191538 | 73 | 57 | 1.0 | 6.0 | 0.00 | 0.00 | 0.00 | 66 | 1015.6 |
| 20260905190044 | 73 | 67 | 1.0 | 3.0 | 0.00 | 0.00 | 0.00 | 68 | 1015.7 |
| 20260905184558 | 72 | 345 | 3.0 | 8.0 | 0.00 | 0.00 | 0.00 | 69 | 1015.7 |
| 20260905183014 | 72 | 65 | 2.0 | 8.0 | 0.00 | 0.00 | 0.00 | 66 | 1015.4 |
| 20260905181603 | 72 | 19 | 1.0 | 5.0 | 0.00 | 0.00 | 0.00 | 68 | 1015.2 |
| 20260905181500 | 72 | 11 | 2.0 | 5.0 | 0.00 | 0.00 | 0.00 | 69 | 1015.3 |
| 20260905180051 | 73 | 11 | 0.0 | 5.0 | 0.00 | 0.00 | 0.00 | 70 | 1015.3 |
| 20260905174551 | 73 | 35 | 0.0 | 5.0 | 0.00 | 0.00 | 0.00 | 69 | 1015.3 |
| 20260905173050 | 73 | 333 | 1.0 | 5.0 | 0.00 | 0.00 | 0.00 | 69 | 1015.6 |
| 20260905171551 | 73 | 328 | 1.0 | 8.0 | 0.00 | 0.00 | 0.00 | 67 | 1015.4 |
| 20260905170049 | 72 | 342 | 0.0 | 9.0 | 0.00 | 0.00 | 0.00 | 69 | 1015.2 |
| 20260905164535 | 73 | 350 | 1.0 | 4.0 | 0.00 | 0.00 | 0.00 | 68 | 1015.2 |
| 20260905163027 | 73 | 38 | 0.0 | 8.0 | 0.00 | 0.00 | 0.00 | 69 | 1015.4 |
| 20260905161548 | 73 | 54 | 0.0 | 8.0 | 0.00 | 0.00 | 0.00 | 67 | 1015.5 |
| 20260905160048 | 73 | 82 | 2.0 | 6.0 | 0.00 | 0.00 | 0.00 | 69 | 1015.4 |
| 20260905154550 | 72 | 5 | 1.0 | 5.0 | 0.00 | 0.00 | 0.00 | 68 | 1015.4 |
| 20260905153049 | 72 | 114 | 1.0 | 6.0 | 0.00 | 0.00 | 0.00 | 72 | 1015.6 |
| 20260905151539 | 71 | 326 | 3.0 | 5.0 | 0.00 | 0.00 | 0.00 | 70 | 1015.7 |